This demonstration page uses our WeatherBlox Daily Observations layout. Learn more.

Left ArrowRight Arrow

Hourly Observations for January 16, 2020

Temp ( °F °C ) Dew Point ( °F °C ) Humidity (%) Winds ( mph kmh ) Pressure ( in mb ) Visibility ( mi km ) Precip ( " mm )
12:53 am 00:53 Clear 5 -15 -2 -18.9 72 72 Calm 30.76 1042 10 16 0.00 0.00
1:53 am 01:53 Clear 5 -15 -3 -19.4 69 69 Calm 30.76 1042 10 16 0.00 0.00
2:53 am 02:53 Clear 4 -15.6 -3 -19.4 73 73 Calm 30.78 1042 10 16 0.00 0.00
3:53 am 03:53 Clear 4 -15.6 -2 -18.9 76 76 Calm 30.78 1042 10 16 0.00 0.00
4:53 am 04:53 Clear 5 -15 -2 -18.9 72 72 Calm 30.79 1043 10 16 0.00 0.00
5:53 am 05:53 Clear 2 -16.7 -3 -19.4 80 80 NNE 6 9 30.79 1043 10 16 0.00 0.00
6:53 am 06:53 Clear 4 -15.6 -2 -18.9 76 76 NE 6 9 30.80 1043 10 16 0.00 0.00
7:53 am 07:53 Clear 4 -15.6 -2 -18.9 76 76 NE 6 9 30.81 1043 9 14 0.00 0.00
8:53 am 08:53 Sunny 5 -15 -2 -18.9 72 72 ENE 5 7 30.82 1044 10 16 0.00 0.00
9:53 am 09:53 Sunny 7 -13.9 -2 -18.9 66 66 Calm 30.85 1045 10 16 0.00 0.00
10:53 am 10:53 Sunny 10 -12.2 1 -17.2 67 67 NE 7 11 30.82 1044 10 16 0.00 0.00
11:53 am 11:53 Sunny 13 -10.6 1 -17.2 59 59 ENE 7 11 30.79 1043 10 16 0.00 0.00
12:53 pm 12:53 Sunny 15 -9.4 1 -17.2 53 53 SE 8 13 30.75 1041 10 16 0.00 0.00
1:53 pm 13:53 Sunny 19 -7.2 4 -15.6 51 51 SE 10 17 30.73 1041 10 16 0.00 0.00
2:53 pm 14:53 Sunny 20 -6.7 4 -15.6 50 50 SE 13 20 30.70 1040 10 16 0.00 0.00
3:53 pm 15:53 Sunny 20 -6.7 5 -15 52 52 SE 13 20 30.66 1038 10 16 0.00 0.00
4:53 pm 16:53 Mostly Sunny 20 -6.7 5 -15 52 52 SSE 10 17 30.67 1039 10 16 0.00 0.00
5:53 pm 17:53 Mostly Cloudy 19 -7.2 6 -14.4 57 57 SE 10 17 30.67 1039 10 16 0.00 0.00
6:53 pm 18:53 Partly Cloudy 18 -7.8 6 -14.4 59 59 SE 7 11 30.67 1039 10 16 0.00 0.00
7:53 pm 19:53 Mostly Clear 17 -8.3 6 -14.4 62 62 SE 12 19 30.65 1038 10 16 0.00 0.00
8:53 pm 20:53 Cloudy 17 -8.3 8 -13.3 68 68 SE 13 20 30.62 1037 10 16 0.00 0.00
9:53 pm 21:53 Cloudy 17 -8.3 8 -13.3 68 68 SE 14 22 30.57 1035 10 16 0.00 0.00
10:53 pm 22:53 Cloudy 17 -8.3 9 -12.8 70 70 ESE 13 20 30.54 1034 10 16 0.00 0.00
11:53 pm 23:53 Partly Cloudy 17 -8.3 10 -12.2 74 74 SE 14 22 30.52 1034 10 16 0.00 0.00

Powered by AerisWeather